When you browse on this site, cookies collect data to enhance your experience and personalize the content and advertising you see.
Visit our Privacy Policy to learn more. By continuing to use the site, you agree to this use of cookies and data.
  • In Romania
  • List of Countries
  • For 7 days
  • Water Temperature
  • Satellite Maps
  • Weather Map
  • Weather Widgets
  • user-avatar
    Login

    Hourly Weather Konoplische

    Today, 17 July, Wednesday

    Time Temperature Precipitation Wind Pressure Humidity
    00:00 +13°C° 0.1 mm 2 mps 741 mmHg 99%
    01:00 +13°C° 0.1 mm 2 mps 741 mmHg 99%
    02:00 +13°C° 0 mm 2 mps 741 mmHg 99%
    03:00 +13°C° 0 mm 2 mps 741 mmHg 99%
    04:00 +14°C° 0 mm 2 mps 741 mmHg 98%
    05:00 +14°C° 0 mm 2 mps 741 mmHg 98%
    06:00 +15°C° 0 mm 2 mps 741 mmHg 96%
    07:00 +16°C° 0 mm 2 mps 741 mmHg 93%
    08:00 +16°C° 0 mm 3 mps 741 mmHg 92%
    09:00 +17°C° 0.1 mm 3 mps 741 mmHg 89%
    10:00 +18°C° 0.1 mm 3 mps 741 mmHg 85%
    11:00 +19°C° 0.1 mm 3 mps 741 mmHg 81%
    12:00 +19°C° 0.6 mm 3 mps 741 mmHg 82%
    13:00 +19°C° 0.6 mm 3 mps 740 mmHg 82%
    14:00 +19°C° 0.6 mm 3 mps 740 mmHg 82%
    15:00 +18°C° 0.3 mm 3 mps 740 mmHg 86%
    16:00 +17°C° 0.3 mm 2 mps 740 mmHg 90%
    17:00 +16°C° 0.3 mm 1 mps 740 mmHg 94%
    18:00 +16°C° 0.1 mm 1 mps 740 mmHg 95%
    19:00 +15°C° 0.1 mm 1 mps 740 mmHg 96%
    20:00 +15°C° 0.1 mm 1 mps 740 mmHg 97%
    21:00 +15°C° 0.2 mm 1 mps 740 mmHg 97%
    22:00 +15°C° 0.2 mm 1 mps 740 mmHg 98%
    23:00 +15°C° 0.2 mm 1 mps 740 mmHg 98%

    Tomorrow, 18 July, Thursday

    Time Temperature Precipitation Wind Pressure Humidity
    00:00 +15°C° 0 mm 1 mps 739 mmHg 98%
    01:00 +14°C° 0 mm 1 mps 739 mmHg 98%
    02:00 +14°C° 0 mm 1 mps 739 mmHg 98%
    03:00 +14°C° 0 mm 1 mps 738 mmHg 98%
    04:00 +14°C° 0 mm 1 mps 738 mmHg 98%
    05:00 +14°C° 0 mm 1 mps 738 mmHg 97%
    06:00 +14°C° 0 mm 0 mps 737 mmHg 94%
    07:00 +15°C° 0 mm 0 mps 737 mmHg 91%
    08:00 +16°C° 0 mm 0 mps 737 mmHg 88%
    09:00 +17°C° 0.3 mm 0 mps 737 mmHg 85%
    10:00 +20°C° 0.3 mm 1 mps 737 mmHg 82%
    11:00 +20°C° 0.3 mm 1 mps 737 mmHg 79%
    12:00 +21°C° 0.5 mm 1 mps 737 mmHg 77%
    13:00 +21°C° 0.5 mm 1 mps 737 mmHg 75%
    14:00 +21°C° 0.5 mm 2 mps 736 mmHg 73%
    15:00 +21°C° 0.6 mm 1 mps 736 mmHg 76%
    16:00 +21°C° 0.6 mm 1 mps 736 mmHg 79%
    17:00 +21°C° 0.6 mm 1 mps 736 mmHg 82%
    18:00 +20°C° 0.3 mm 1 mps 736 mmHg 85%
    19:00 +18°C° 0.3 mm 1 mps 736 mmHg 88%
    20:00 +16°C° 0.3 mm 1 mps 736 mmHg 91%
    21:00 +15°C° 0 mm 1 mps 736 mmHg 93%
    22:00 +15°C° 0 mm 1 mps 736 mmHg 94%
    23:00 +14°C° 0 mm 1 mps 736 mmHg 95%

    Day after tomorrow, 19 July, Friday

    Time Temperature Precipitation Wind Pressure Humidity
    00:00 +14°C° 0 mm 1 mps 736 mmHg 96%
    01:00 +13°C° 0 mm 1 mps 736 mmHg 97%
    02:00 +13°C° 0 mm 1 mps 736 mmHg 97%
    03:00 +13°C° 0 mm 1 mps 736 mmHg 97%
    04:00 +13°C° 0 mm 1 mps 737 mmHg 98%
    05:00 +13°C° 0 mm 1 mps 737 mmHg 98%
    06:00 +14°C° 0.2 mm 1 mps 737 mmHg 97%
    07:00 +14°C° 0.2 mm 1 mps 737 mmHg 97%
    08:00 +15°C° 0.2 mm 1 mps 737 mmHg 96%
    09:00 +15°C° 0.3 mm 1 mps 737 mmHg 95%
    10:00 +15°C° 0.3 mm 1 mps 737 mmHg 95%
    11:00 +15°C° 0.3 mm 1 mps 737 mmHg 94%
    12:00 +16°C° 0.1 mm 1 mps 738 mmHg 92%
    13:00 +16°C° 0.1 mm 1 mps 738 mmHg 90%
    14:00 +18°C° 0.1 mm 1 mps 738 mmHg 88%
    15:00 +19°C° 0.1 mm 1 mps 738 mmHg 83%
    16:00 +19°C° 0.1 mm 1 mps 738 mmHg 79%
    17:00 +19°C° 0.1 mm 2 mps 738 mmHg 74%
    18:00 +18°C° 0.4 mm 2 mps 738 mmHg 81%
    19:00 +16°C° 0.4 mm 2 mps 738 mmHg 87%
    20:00 +15°C° 0.4 mm 1 mps 738 mmHg 94%
    21:00 +14°C° 0 mm 1 mps 738 mmHg 94%
    22:00 +14°C° 0 mm 1 mps 739 mmHg 94%
    23:00 +13°C° 0 mm 1 mps 739 mmHg 94%

    20 July, Saturday

    Time Temperature Precipitation Wind Pressure Humidity
    00:00 +13°C° 0 mm 2 mps 739 mmHg 96%
    01:00 +14°C° 0 mm 2 mps 739 mmHg 97%
    02:00 +13°C° 0 mm 3 mps 740 mmHg 98%
    03:00 +13°C° 0.3 mm 3 mps 740 mmHg 98%
    04:00 +14°C° 0.3 mm 3 mps 740 mmHg 97%
    05:00 +14°C° 0.3 mm 3 mps 740 mmHg 97%
    06:00 +16°C° 0.1 mm 3 mps 741 mmHg 95%
    07:00 +16°C° 0.1 mm 3 mps 741 mmHg 94%
    08:00 +16°C° 0.1 mm 3 mps 742 mmHg 92%
    09:00 +17°C° 0.1 mm 3 mps 742 mmHg 88%
    10:00 +18°C° 0.1 mm 3 mps 742 mmHg 84%
    11:00 +19°C° 0.1 mm 4 mps 743 mmHg 79%
    12:00 +19°C° 0.1 mm 4 mps 743 mmHg 76%
    13:00 +20°C° 0.1 mm 4 mps 744 mmHg 73%
    14:00 +20°C° 0.1 mm 5 mps 744 mmHg 70%
    15:00 +20°C° 0 mm 4 mps 744 mmHg 72%
    16:00 +19°C° 0 mm 4 mps 744 mmHg 74%
    17:00 +19°C° 0 mm 4 mps 745 mmHg 76%
    18:00 +18°C° 0 mm 4 mps 745 mmHg 79%
    19:00 +17°C° 0 mm 3 mps 745 mmHg 82%
    20:00 +17°C° 0 mm 2 mps 745 mmHg 86%
    21:00 +16°C° 0 mm 3 mps 745 mmHg 89%
    22:00 +14°C° 0 mm 3 mps 746 mmHg 92%
    23:00 +13°C° 0 mm 3 mps 746 mmHg 95%

    21 July, Sunday

    Time Temperature Precipitation Wind Pressure Humidity
    00:00 +13°C° 0 mm 3 mps 746 mmHg 96%
    01:00 +13°C° 0 mm 3 mps 746 mmHg 97%
    02:00 +14°C° 0 mm 2 mps 746 mmHg 98%
    03:00 +14°C° 0 mm 2 mps 747 mmHg 97%
    04:00 +14°C° 0 mm 2 mps 747 mmHg 96%
    05:00 +14°C° 0 mm 2 mps 747 mmHg 96%
    06:00 +15°C° 0 mm 2 mps 747 mmHg 88%
    07:00 +17°C° 0 mm 3 mps 747 mmHg 80%
    08:00 +18°C° 0 mm 3 mps 747 mmHg 73%
    09:00 +19°C° 0 mm 3 mps 748 mmHg 65%
    10:00 +20°C° 0 mm 3 mps 748 mmHg 57%
    11:00 +21°C° 0 mm 3 mps 748 mmHg 49%
    12:00 +22°C° 0 mm 3 mps 748 mmHg 49%
    13:00 +22°C° 0 mm 3 mps 748 mmHg 48%
    14:00 +24°C° 0 mm 3 mps 747 mmHg 48%
    15:00 +22°C° 0 mm 3 mps 748 mmHg 52%
    16:00 +21°C° 0 mm 3 mps 748 mmHg 56%
    17:00 +21°C° 0 mm 3 mps 748 mmHg 60%
    18:00 +19°C° 0 mm 2 mps 748 mmHg 66%
    19:00 +17°C° 0 mm 2 mps 748 mmHg 72%
    20:00 +15°C° 0 mm 2 mps 748 mmHg 78%
    21:00 +14°C° 0 mm 1 mps 748 mmHg 82%
    22:00 +13°C° 0 mm 1 mps 748 mmHg 87%
    23:00 +12°C° 0 mm 1 mps 748 mmHg 92%

    22 July, Monday

    Time Temperature Precipitation Wind Pressure Humidity
    00:00 +12°C° 0 mm 1 mps 748 mmHg 91%
    01:00 +12°C° 0 mm 1 mps 748 mmHg 91%
    02:00 +12°C° 0 mm 1 mps 748 mmHg 91%
    03:00 +13°C° 0 mm 1 mps 748 mmHg 90%
    04:00 +13°C° 0 mm 1 mps 748 mmHg 88%
    05:00 +14°C° 0 mm 2 mps 748 mmHg 87%
    06:00 +15°C° 0 mm 2 mps 748 mmHg 81%
    07:00 +17°C° 0 mm 2 mps 748 mmHg 75%
    08:00 +19°C° 0 mm 2 mps 749 mmHg 69%
    09:00 +20°C° 0 mm 2 mps 749 mmHg 63%
    10:00 +21°C° 0 mm 2 mps 749 mmHg 57%
    11:00 +23°C° 0 mm 2 mps 749 mmHg 50%
    12:00 +22°C° 0 mm 3 mps 749 mmHg 49%
    13:00 +24°C° 0 mm 3 mps 748 mmHg 48%
    14:00 +24°C° 0 mm 3 mps 748 mmHg 47%
    15:00 +24°C° 0 mm 3 mps 748 mmHg 49%
    16:00 +24°C° 0 mm 3 mps 748 mmHg 50%
    17:00 +22°C° 0 mm 3 mps 748 mmHg 51%
    18:00 +20°C° 0 mm 2 mps 748 mmHg 58%
    19:00 +18°C° 0 mm 2 mps 748 mmHg 64%
    20:00 +16°C° 0 mm 2 mps 748 mmHg 71%
    21:00 +15°C° 0 mm 2 mps 748 mmHg 73%
    22:00 +14°C° 0 mm 2 mps 749 mmHg 75%
    23:00 +13°C° 0 mm 2 mps 749 mmHg 77%
    Show more